When you browse on this site, cookies collect data to enhance your experience and personalize the content and advertising you see.
Visit our Privacy Policy to learn more. By continuing to use the site, you agree to this use of cookies and data.
  • In Hungary
  • List of Countries
  • For 7 days
  • Water Temperature
  • Weather Map
  • News
  • Weather Widgets
  • user-avatar
    Login

    Hourly Weather Terskol

    Today, 20 August, Tuesday

    Time Temperature Precipitation Wind Pressure Humidity
    00:00 +8°C° 0 mm 1 mps 534 mmHg 66%
    01:00 +8°C° 0 mm 1 mps 534 mmHg 65%
    02:00 +8°C° 0 mm 1 mps 534 mmHg 63%
    03:00 +8°C° 0 mm 1 mps 534 mmHg 63%
    04:00 +8°C° 0 mm 1 mps 535 mmHg 60%
    05:00 +9°C° 0 mm 1 mps 535 mmHg 58%
    06:00 +10°C° 0 mm 1 mps 536 mmHg 55%
    07:00 +12°C° 0 mm 1 mps 537 mmHg 50%
    08:00 +15°C° 0 mm 1 mps 539 mmHg 46%
    09:00 +19°C° 0 mm 1 mps 541 mmHg 41%
    10:00 +18°C° 0.1 mm 2 mps 541 mmHg 41%
    11:00 +19°C° 0.1 mm 2 mps 541 mmHg 42%
    12:00 +19°C° 0.1 mm 2 mps 541 mmHg 42%
    13:00 +19°C° 0.3 mm 2 mps 541 mmHg 43%
    14:00 +19°C° 0.3 mm 2 mps 541 mmHg 44%
    15:00 +19°C° 0.3 mm 3 mps 541 mmHg 45%
    16:00 +18°C° 0.5 mm 2 mps 540 mmHg 54%
    17:00 +17°C° 0.5 mm 2 mps 539 mmHg 63%
    18:00 +15°C° 0.5 mm 1 mps 538 mmHg 73%
    19:00 +13°C° 0.1 mm 1 mps 537 mmHg 76%
    20:00 +10°C° 0.1 mm 1 mps 536 mmHg 80%
    21:00 +8°C° 0.1 mm 1 mps 535 mmHg 83%
    22:00 +8°C° 0 mm 1 mps 534 mmHg 82%
    23:00 +8°C° 0 mm 1 mps 534 mmHg 81%

    Tomorrow, 21 August, Wednesday

    Time Temperature Precipitation Wind Pressure Humidity
    00:00 +8°C° 0 mm 1 mps 534 mmHg 80%
    01:00 +8°C° 0 mm 1 mps 534 mmHg 77%
    02:00 +8°C° 0 mm 1 mps 534 mmHg 75%
    03:00 +8°C° 0 mm 1 mps 534 mmHg 72%
    04:00 +8°C° 0 mm 1 mps 534 mmHg 67%
    05:00 +9°C° 0 mm 1 mps 534 mmHg 63%
    06:00 +9°C° 0 mm 1 mps 534 mmHg 58%
    07:00 +12°C° 0 mm 1 mps 536 mmHg 52%
    08:00 +15°C° 0 mm 1 mps 537 mmHg 46%
    09:00 +19°C° 0 mm 1 mps 539 mmHg 40%
    10:00 +20°C° 0 mm 1 mps 539 mmHg 39%
    11:00 +19°C° 0 mm 2 mps 540 mmHg 38%
    12:00 +20°C° 0 mm 2 mps 540 mmHg 38%
    13:00 +20°C° 0.2 mm 2 mps 540 mmHg 38%
    14:00 +20°C° 0.2 mm 2 mps 539 mmHg 39%
    15:00 +20°C° 0.2 mm 2 mps 539 mmHg 39%
    16:00 +18°C° 0.3 mm 2 mps 538 mmHg 49%
    17:00 +18°C° 0.3 mm 1 mps 537 mmHg 58%
    18:00 +16°C° 0.3 mm 1 mps 536 mmHg 68%
    19:00 +13°C° 0 mm 1 mps 535 mmHg 70%
    20:00 +11°C° 0 mm 1 mps 534 mmHg 73%
    21:00 +8°C° 0 mm 1 mps 532 mmHg 75%
    22:00 +8°C° 0 mm 1 mps 532 mmHg 74%
    23:00 +8°C° 0 mm 1 mps 532 mmHg 72%

    Day after tomorrow, 22 August, Thursday

    Time Temperature Precipitation Wind Pressure Humidity
    00:00 +8°C° 0 mm 1 mps 532 mmHg 71%
    01:00 +7°C° 0 mm 1 mps 532 mmHg 70%
    02:00 +7°C° 0 mm 1 mps 531 mmHg 70%
    03:00 +7°C° 0 mm 1 mps 531 mmHg 69%
    04:00 +7°C° 0 mm 1 mps 531 mmHg 67%
    05:00 +7°C° 0 mm 1 mps 531 mmHg 66%
    06:00 +8°C° 0 mm 1 mps 531 mmHg 64%
    07:00 +11°C° 0 mm 1 mps 533 mmHg 57%
    08:00 +14°C° 0 mm 2 mps 535 mmHg 50%
    09:00 +16°C° 0 mm 2 mps 537 mmHg 42%
    10:00 +17°C° 0.2 mm 2 mps 537 mmHg 43%
    11:00 +17°C° 0.2 mm 2 mps 537 mmHg 44%
    12:00 +18°C° 0.2 mm 2 mps 537 mmHg 45%
    13:00 +17°C° 0.6 mm 2 mps 537 mmHg 48%
    14:00 +17°C° 0.6 mm 2 mps 537 mmHg 50%
    15:00 +16°C° 0.6 mm 2 mps 537 mmHg 53%
    16:00 +15°C° 0.8 mm 2 mps 536 mmHg 62%
    17:00 +14°C° 0.8 mm 1 mps 535 mmHg 70%
    18:00 +12°C° 0.8 mm 1 mps 534 mmHg 78%
    19:00 +11°C° 0.3 mm 1 mps 534 mmHg 81%
    20:00 +9°C° 0.3 mm 1 mps 533 mmHg 84%
    21:00 +7°C° 0.3 mm 1 mps 532 mmHg 87%
    22:00 +7°C° 0.1 mm 1 mps 532 mmHg 84%
    23:00 +8°C° 0.1 mm 1 mps 532 mmHg 80%

    23 August, Friday

    Time Temperature Precipitation Wind Pressure Humidity
    00:00 +8°C° 0.1 mm 1 mps 532 mmHg 77%
    01:00 +7°C° 0 mm 1 mps 532 mmHg 75%
    02:00 +7°C° 0 mm 1 mps 532 mmHg 73%
    03:00 +7°C° 0 mm 1 mps 531 mmHg 72%
    04:00 +7°C° 0 mm 1 mps 532 mmHg 72%
    05:00 +7°C° 0 mm 1 mps 532 mmHg 72%
    06:00 +7°C° 0 mm 1 mps 532 mmHg 72%
    07:00 +9°C° 0 mm 1 mps 533 mmHg 66%
    08:00 +11°C° 0 mm 1 mps 534 mmHg 60%
    09:00 +13°C° 0 mm 1 mps 536 mmHg 54%
    10:00 +14°C° 0.4 mm 1 mps 536 mmHg 52%
    11:00 +14°C° 0.4 mm 1 mps 536 mmHg 50%
    12:00 +15°C° 0.4 mm 2 mps 537 mmHg 48%
    13:00 +15°C° 0.6 mm 2 mps 537 mmHg 51%
    14:00 +15°C° 0.6 mm 2 mps 536 mmHg 53%
    15:00 +14°C° 0.6 mm 2 mps 536 mmHg 55%
    16:00 +13°C° 1.1 mm 1 mps 536 mmHg 62%
    17:00 +12°C° 1.1 mm 1 mps 535 mmHg 69%
    18:00 +11°C° 1.1 mm 1 mps 534 mmHg 76%
    19:00 +10°C° 0.4 mm 1 mps 534 mmHg 78%
    20:00 +8°C° 0.4 mm 1 mps 533 mmHg 80%
    21:00 +7°C° 0.4 mm 1 mps 532 mmHg 83%
    22:00 +7°C° 0.1 mm 1 mps 532 mmHg 81%
    23:00 +7°C° 0.1 mm 1 mps 532 mmHg 80%

    24 August, Saturday

    Time Temperature Precipitation Wind Pressure Humidity
    00:00 +6°C° 0.1 mm 1 mps 532 mmHg 79%
    01:00 +5°C° 0 mm 2 mps 532 mmHg 81%
    02:00 +5°C° 0 mm 2 mps 532 mmHg 83%
    03:00 +5°C° 0 mm 2 mps 531 mmHg 85%
    04:00 +5°C° 0.2 mm 2 mps 532 mmHg 85%
    05:00 +5°C° 0.2 mm 2 mps 532 mmHg 86%
    06:00 +5°C° 0.2 mm 2 mps 532 mmHg 87%
    07:00 +6°C° 0.5 mm 2 mps 533 mmHg 84%
    08:00 +7°C° 0.5 mm 2 mps 533 mmHg 81%
    09:00 +8°C° 0.5 mm 2 mps 534 mmHg 77%
    10:00 +10°C° 0.3 mm 1 mps 534 mmHg 72%
    11:00 +11°C° 0.3 mm 1 mps 535 mmHg 66%
    12:00 +12°C° 0.3 mm 1 mps 535 mmHg 61%
    13:00 +12°C° 0.3 mm 1 mps 535 mmHg 62%
    14:00 +12°C° 0.3 mm 1 mps 535 mmHg 63%
    15:00 +12°C° 0.3 mm 1 mps 535 mmHg 65%
    16:00 +11°C° 1 mm 1 mps 535 mmHg 71%
    17:00 +10°C° 1 mm 1 mps 534 mmHg 78%
    18:00 +7°C° 1 mm 2 mps 534 mmHg 85%
    19:00 +7°C° 0.7 mm 2 mps 533 mmHg 87%
    20:00 +6°C° 0.7 mm 2 mps 533 mmHg 88%
    21:00 +5°C° 0.7 mm 2 mps 532 mmHg 89%
    22:00 +6°C° 0.1 mm 1 mps 532 mmHg 88%
    23:00 +5°C° 0.1 mm 1 mps 532 mmHg 86%

    25 August, Sunday

    Time Temperature Precipitation Wind Pressure Humidity
    00:00 +5°C° 0.1 mm 1 mps 532 mmHg 85%
    01:00 +5°C° 0 mm 1 mps 532 mmHg 84%
    02:00 +5°C° 0 mm 1 mps 532 mmHg 83%
    03:00 +5°C° 0 mm 1 mps 532 mmHg 82%
    04:00 +5°C° 0 mm 1 mps 532 mmHg 82%
    05:00 +5°C° 0 mm 1 mps 532 mmHg 83%
    06:00 +5°C° 0 mm 1 mps 532 mmHg 84%
    07:00 +7°C° 0.3 mm 1 mps 533 mmHg 79%
    08:00 +9°C° 0.3 mm 1 mps 534 mmHg 75%
    09:00 +11°C° 0.3 mm 1 mps 536 mmHg 70%
    10:00 +12°C° 1.3 mm 1 mps 536 mmHg 70%
    11:00 +12°C° 1.3 mm 1 mps 536 mmHg 69%
    12:00 +13°C° 1.3 mm 1 mps 536 mmHg 69%
    13:00 +13°C° 1.7 mm 1 mps 536 mmHg 69%
    14:00 +13°C° 1.7 mm 1 mps 536 mmHg 68%
    15:00 +13°C° 1.7 mm 1 mps 536 mmHg 68%
    16:00 +12°C° 0.7 mm 1 mps 535 mmHg 72%
    17:00 +11°C° 0.7 mm 1 mps 535 mmHg 76%
    18:00 +11°C° 0.7 mm 1 mps 535 mmHg 80%
    19:00 +9°C° 0 mm 1 mps 534 mmHg 82%
    20:00 +7°C° 0 mm 1 mps 532 mmHg 85%
    21:00 +5°C° 0 mm 1 mps 531 mmHg 87%
    22:00 +5°C° 0 mm 1 mps 531 mmHg 86%
    23:00 +5°C° 0 mm 1 mps 531 mmHg 85%
    Show more